Terug naar catalogus

CZ-2C R/B

ActiefVLEO
NORAD 58754·ROCKET BODY·🇨🇳 China

Gelanceerd Jan 9, 2024 vanaf Xichang Satellite Launch Center

Loading…

Volgende Passages (komende 24 uur)

TLE

VersSource: Space-Track

Epoch: Sep 14, 2026, 17:33 UTC

1 58754U 24007B   26257.73180700  .00015485  00000-0  27975-3 0  9996
2 58754  29.0104  38.9705 0057662 267.9285  91.4722 15.46212467150058

Volg CZ-2C R/B in realtime met AllMySat

Download on the App Store